tititudorancea.com
Station Historical Data
Daily Summary for August 5, 2018 Units:  Metric    English   Both
« Previous Day
Next Day »
Daily Weekly Monthly Yearly Custom
  High: Low: Average:
Temperature: -17.8 °C 8.3 °C 11.7 °C
Dew Point: -17.8 °C 1.2 °C 3.7 °C
Humidity: Humidity % 39 % 59 %
Wind Speed: 0 km/h 9.3 km/h 26.6 km/h
Wind Gust: 0 km/h - -
Wind:- - South
Pressure: 0 hPa 996.5 hPa -
Precipitation: 2.01 mm    
Historical Graphs
 
 
Ararat weather Find more about Weather in Ararat, AU


 



 


Tabular Data for August 5, 2018
Time Temperature Dew Point Pressure Wind Wind Speed Wind Gust Humidity Rainfall Rate (Hourly)
-17.8 °C -17.8 °C 0 hPa Calm     Humidity % 0 mm
00:04 11.9 °C 4.6 °C 1007.7 hPa North 17.7 km/h 16.6 km/h 61 % 0 mm
00:09 11.8 °C 4.6 °C 1007.7 hPa North 22.2 km/h 14.2 km/h 61 % 0 mm
00:14 11.8 °C 4.6 °C 1007.3 hPa North 18.5 km/h 11.1 km/h 61 % 0 mm
00:19 11.8 °C 4.5 °C 1007.3 hPa North 14.8 km/h 14 km/h 61 % 0 mm
00:24 11.7 °C 4.4 °C 1007.3 hPa North 18.5 km/h 9.2 km/h 61 % 0 mm
00:29 11.6 °C 4.3 °C 1007.3 hPa NNW 20.4 km/h 10.3 km/h 61 % 0 mm
00:34 11.6 °C 4.3 °C 1007.3 hPa North 16.7 km/h 10.6 km/h 61 % 0 mm
00:39 11.6 °C 4.3 °C 1007.3 hPa North 27.8 km/h 15.9 km/h 61 % 0 mm
00:44 11.6 °C 4.3 °C 1007.3 hPa North 27.8 km/h 11.7 km/h 61 % 0 mm
00:49 11.5 °C 4.2 °C 1007.3 hPa NNW 20.4 km/h 12.4 km/h 61 % 0 mm
00:54 11.4 °C 4.2 °C 1007.3 hPa North 22.2 km/h 16.1 km/h 61 % 0 mm
00:59 11.3 °C 4.1 °C 1007.3 hPa North 25.9 km/h 12.9 km/h 61 % 0 mm
01:04 11.3 °C 4 °C 1007.3 hPa North 27.4 km/h 17.1 km/h 61 % 0 mm
01:09 11.2 °C 3.9 °C 1007.3 hPa North 22.2 km/h 13.5 km/h 61 % 0 mm
01:14 11.2 °C 3.9 °C 1007.3 hPa North 18.5 km/h 10.1 km/h 61 % 0 mm
01:19 11.1 °C 3.9 °C 1007.3 hPa North 11.1 km/h 6.6 km/h 61 % 0 mm
01:24 11.1 °C 3.6 °C 1007.3 hPa NNE 25.9 km/h 6.8 km/h 60 % 0 mm
01:29 11.1 °C 3.6 °C 1007.3 hPa NNE 19.3 km/h 15.1 km/h 60 % 0 mm
01:34 11.2 °C 3.4 °C 1007 hPa NNE 16.7 km/h 10.8 km/h 59 % 0 mm
01:39 11.1 °C 3.4 °C 1007.3 hPa North 24.1 km/h 13.2 km/h 59 % 0 mm
01:44 11.1 °C 3.4 °C 1007 hPa North 27.8 km/h 10.3 km/h 59 % 0 mm
01:49 11.1 °C 3.4 °C 1007 hPa NNW 24.1 km/h 11.4 km/h 59 % 0 mm
01:54 11.1 °C 3.4 °C 1007 hPa North 18.5 km/h 18.3 km/h 59 % 0 mm
01:59 11.1 °C 3.4 °C 1007 hPa NNW 20.9 km/h 15.4 km/h 59 % 0 mm
02:04 11.1 °C 3.3 °C 1007 hPa North 27.8 km/h 13.8 km/h 59 % 0 mm
02:09 11 °C 3.5 °C 1007 hPa North 25.9 km/h 17.2 km/h 60 % 0 mm
02:14 10.9 °C 3.5 °C 1007 hPa North 27.8 km/h 13.5 km/h 60 % 0 mm
02:19 10.9 °C 3.4 °C 1006.7 hPa North 25.9 km/h 19.2 km/h 60 % 0 mm
02:24 10.8 °C 3.4 °C 1006.7 hPa North 22.2 km/h 17.5 km/h 60 % 0 mm
02:29 10.8 °C 3.3 °C 1006.7 hPa North 27.8 km/h 12.4 km/h 60 % 0 mm
02:34 10.7 °C 3.3 °C 1006.7 hPa North 31.5 km/h 18.8 km/h 60 % 0 mm
02:39 10.6 °C 3.4 °C 1006.7 hPa North 20.4 km/h 19.3 km/h 61 % 0 mm
02:44 10.6 °C 3.3 °C 1006.7 hPa North 25.9 km/h 14.8 km/h 61 % 0 mm
02:49 10.4 °C 3.4 °C 1006.7 hPa North 22.2 km/h 15.4 km/h 62 % 0 mm
02:54 10.4 °C 3.4 °C 1006.7 hPa NNE 18.5 km/h 14.6 km/h 62 % 0 mm
02:59 10.3 °C 3.3 °C 1006.7 hPa North 29.6 km/h 18 km/h 62 % 0 mm
03:04 10.3 °C 3.6 °C 1006.7 hPa North 22.2 km/h 13.7 km/h 63 % 0 mm
03:09 10.2 °C 3.5 °C 1006.3 hPa NNW 20.4 km/h 18 km/h 63 % 0 mm
03:14 10.3 °C 3.6 °C 1006.3 hPa NNW 25.9 km/h 18 km/h 63 % 0 mm
03:19 10.2 °C 3.5 °C 1006.3 hPa North 24.1 km/h 14 km/h 63 % 0 mm
03:24 10.2 °C 3.5 °C 1006.3 hPa North 29 km/h 14.5 km/h 63 % 0 mm
03:29 10.2 °C 3.4 °C 1006.3 hPa NNW 18.5 km/h 14.2 km/h 63 % 0 mm
03:34 10.1 °C 3.6 °C 1006.3 hPa North 18.5 km/h 14.6 km/h 64 % 0 mm
03:39 10.1 °C 3.6 °C 1006.3 hPa North 11.1 km/h 7.7 km/h 64 % 0 mm
03:44 10 °C 3.5 °C 1006.3 hPa North 19.3 km/h 12.4 km/h 64 % 0 mm
03:49 10.1 °C 3.4 °C 1006.3 hPa North 22.2 km/h 14.2 km/h 63 % 0 mm
03:54 10.1 °C 3.3 °C 1006.3 hPa North 25.9 km/h 13.5 km/h 63 % 0 mm
03:59 10 °C 3.5 °C 1006 hPa North 24.1 km/h 12.6 km/h 64 % 0 mm
04:04 9.9 °C 3.4 °C 1006 hPa North 18.5 km/h 11.3 km/h 64 % 0 mm
04:09 9.8 °C 3.3 °C 1006 hPa North 20.4 km/h 13.5 km/h 64 % 0 mm
04:14 9.8 °C 3.3 °C 1006 hPa North 18.5 km/h 11.6 km/h 64 % 0 mm
04:19 9.7 °C 3.2 °C 1006 hPa North 16.7 km/h 9.8 km/h 64 % 0 mm
04:24 9.7 °C 3.2 °C 1006 hPa North 20.4 km/h 14.6 km/h 64 % 0 mm
04:29 9.7 °C 3.2 °C 1006 hPa North 16.7 km/h 13 km/h 64 % 0 mm
04:34 9.6 °C 3.1 °C 1006 hPa NNW 18.5 km/h 10.1 km/h 64 % 0 mm
04:39 9.5 °C 3 °C 1006 hPa North 16.7 km/h 11.6 km/h 64 % 0 mm
04:44 9.4 °C 3.2 °C 1006 hPa North 18.5 km/h 8.5 km/h 65 % 0 mm
04:49 9.4 °C 2.9 °C 1006 hPa North 20.4 km/h 9.7 km/h 64 % 0 mm
04:54 9.4 °C 2.9 °C 1006 hPa North 18.5 km/h 10.8 km/h 64 % 0 mm
04:59 9.4 °C 2.9 °C 1006 hPa North 22.2 km/h 14.3 km/h 64 % 0 mm
05:04 9.6 °C 2.8 °C 1006 hPa North 27.8 km/h 12.7 km/h 63 % 0 mm
05:09 9.6 °C 2.9 °C 1006 hPa North 19.3 km/h 11.6 km/h 63 % 0 mm
05:14 9.6 °C 2.8 °C 1006 hPa North 18.5 km/h 10.1 km/h 63 % 0 mm
05:19 9.4 °C 2.7 °C 1006 hPa NNE 18.5 km/h 13.7 km/h 63 % 0 mm
05:24 9.4 °C 2.9 °C 1006 hPa North 22.2 km/h 9.2 km/h 64 % 0 mm
05:29 9.3 °C 2.8 °C 1006 hPa North 16.7 km/h 11.6 km/h 64 % 0 mm
05:34 9.3 °C 2.8 °C 1006 hPa North 24.1 km/h 13.7 km/h 64 % 0 mm
05:39 9.2 °C 2.7 °C 1006 hPa North 25.7 km/h 9.7 km/h 64 % 0 mm
05:44 9.1 °C 2.7 °C 1006 hPa North 29.6 km/h 10.6 km/h 64 % 0 mm
05:49 9 °C 2.8 °C 1006 hPa North 18.5 km/h 13.5 km/h 65 % 0 mm
05:54 8.9 °C 2.7 °C 1006 hPa North 18.5 km/h 9.5 km/h 65 % 0 mm
05:59 8.8 °C 2.8 °C 1006 hPa North 22.2 km/h 14.5 km/h 66 % 0 mm
06:04 8.8 °C 2.8 °C 1006 hPa North 16.7 km/h 14.2 km/h 66 % 0 mm
06:09 8.8 °C 2.8 °C 1006 hPa North 25.9 km/h 18.3 km/h 66 % 0 mm
06:14 8.8 °C 2.8 °C 1006 hPa NNE 16.7 km/h 12.7 km/h 66 % 0 mm
06:19 8.7 °C 2.7 °C 1006 hPa North 13 km/h 10.8 km/h 66 % 0 mm
06:24 8.7 °C 2.7 °C 1006 hPa North 27.8 km/h 14 km/h 66 % 0 mm
06:29 8.7 °C 2.7 °C 1006.3 hPa North 29.6 km/h 12.1 km/h 66 % 0 mm
06:34 8.7 °C 2.7 °C 1006.3 hPa North 31.5 km/h 18.3 km/h 66 % 0 mm
06:39 8.7 °C 2.7 °C 1006.3 hPa North 20.9 km/h 15.1 km/h 66 % 0 mm
06:44 8.7 °C 2.7 °C 1006 hPa North 19.3 km/h 15 km/h 66 % 0 mm
06:49 8.7 °C 2.7 °C 1006 hPa North 25.9 km/h 12.9 km/h 66 % 0 mm
06:54 8.6 °C 2.6 °C 1006 hPa North 24.1 km/h 15.4 km/h 66 % 0 mm
06:59 8.6 °C 2.6 °C 1006.3 hPa North 22.2 km/h 17.4 km/h 66 % 0 mm
07:04 8.6 °C 2.6 °C 1006 hPa North 27.8 km/h 17.1 km/h 66 % 0 mm
07:09 8.6 °C 2.6 °C 1006 hPa North 20.9 km/h 12.2 km/h 66 % 0 mm
07:14 8.6 °C 2.6 °C 1006 hPa North 27.8 km/h 13.2 km/h 66 % 0 mm
07:19 8.6 °C 2.6 °C 1006 hPa NNE 32.2 km/h 20.3 km/h 66 % 0 mm
07:24 8.7 °C 2.4 °C 1006 hPa North 24.1 km/h 17.4 km/h 65 % 0 mm
07:29 8.7 °C 2.4 °C 1006 hPa North 19.3 km/h 15.9 km/h 65 % 0 mm
07:34 8.6 °C 2.4 °C 1006 hPa North 31.5 km/h 17.7 km/h 65 % 0 mm
07:39 8.6 °C 2.3 °C 1006 hPa NNE 18.5 km/h 12.9 km/h 65 % 0 mm
07:44 8.5 °C 2.5 °C 1006 hPa North 22.2 km/h 10.1 km/h 66 % 0 mm
07:49 8.4 °C 2.4 °C 1006 hPa North 18.5 km/h 10.1 km/h 66 % 0 mm
07:54 8.4 °C 2.4 °C 1006 hPa North 17.7 km/h 14.5 km/h 66 % 0 mm
07:59 8.4 °C 2.4 °C 1006 hPa NNW 24.1 km/h 15.3 km/h 66 % 0 mm
08:04 8.4 °C 2.4 °C 1006 hPa North 25.9 km/h 19.3 km/h 66 % 0 mm
08:09 8.5 °C 2.5 °C 1006 hPa North 29.6 km/h 13.8 km/h 66 % 0 mm
08:14 8.6 °C 2.6 °C 1006 hPa North 20.9 km/h 15.4 km/h 66 % 0 mm
08:19 8.7 °C 2.5 °C 1006 hPa North 20.4 km/h 14.6 km/h 65 % 0 mm
08:24 8.8 °C 2.6 °C 1006 hPa North 24.1 km/h 14 km/h 65 % 0 mm
08:29 8.8 °C 2.6 °C 1006 hPa NNW 29.6 km/h 18.7 km/h 65 % 0 mm
08:34 8.9 °C 2.7 °C 1006 hPa North 20.4 km/h 15.8 km/h 65 % 0 mm
08:39 9.1 °C 2.7 °C 1006 hPa North 24.1 km/h 15.4 km/h 64 % 0 mm
08:44 9.3 °C 2.8 °C 1006 hPa NNE 24.1 km/h 20.4 km/h 64 % 0 mm
08:49 9.5 °C 2.8 °C 1006 hPa North 22.2 km/h 15.6 km/h 63 % 0 mm
08:54 9.7 °C 2.9 °C 1006 hPa North 18.5 km/h 14.6 km/h 63 % 0 mm
08:59 9.8 °C 2.8 °C 1006 hPa North 27.8 km/h 20.3 km/h 62 % 0 mm
09:04 9.9 °C 2.7 °C 1006 hPa NNE 33.8 km/h 20.3 km/h 61 % 0 mm
09:09 10 °C 2.8 °C 1006 hPa North 40.7 km/h 21.7 km/h 61 % 0 mm
09:14 10 °C 2.8 °C 1005.6 hPa North 31.5 km/h 20.3 km/h 61 % 0 mm
09:19 10.2 °C 2.7 °C 1005.6 hPa NNE 35.2 km/h 24.8 km/h 60 % 0 mm
09:24 10.3 °C 2.8 °C 1005.6 hPa NNW 38.9 km/h 26.1 km/h 60 % 0 mm
09:29 10.4 °C 2.9 °C 1005.6 hPa North 42.6 km/h 19.5 km/h 60 % 0 mm
09:34 10.4 °C 3 °C 1005.3 hPa North 33.8 km/h 24.3 km/h 60 % 0 mm
09:39 10.6 °C 3.2 °C 1005.3 hPa North 31.5 km/h 18 km/h 60 % 0 mm
09:44 10.7 °C 3 °C 1005.3 hPa North 38.6 km/h 23.3 km/h 59 % 0 mm
09:49 10.7 °C 3.3 °C 1005.3 hPa NNW 25.9 km/h 19.3 km/h 60 % 0 mm
09:54 10.8 °C 3.1 °C 1005.3 hPa North 32.2 km/h 18.8 km/h 59 % 0 mm
09:59 10.9 °C 3.2 °C 1005 hPa North 31.5 km/h 16.3 km/h 59 % 0 mm
10:04 11.1 °C 3.4 °C 1005 hPa North 31.5 km/h 21.4 km/h 59 % 0 mm
10:09 11.2 °C 3.5 °C 1005 hPa North 19.3 km/h 16.6 km/h 59 % 0 mm
10:14 11.4 °C 3.7 °C 1005 hPa North 24.1 km/h 12.7 km/h 59 % 0 mm
10:19 11.5 °C 3.5 °C 1005 hPa North 33.3 km/h 11.3 km/h 58 % 0 mm
10:24 11.7 °C 3.7 °C 1005 hPa NNW 20.9 km/h 17.1 km/h 58 % 0 mm
10:29 11.9 °C 3.7 °C 1004.6 hPa North 27.8 km/h 15.8 km/h 57 % 0 mm
10:34 12.1 °C 3.8 °C 1004.6 hPa North 20.4 km/h 14.5 km/h 57 % 0 mm
10:39 12.3 °C 3.7 °C 1004.6 hPa NNW 19.3 km/h 24.5 km/h 56 % 0 mm
10:44 12.4 °C 3.8 °C 1004.6 hPa North 29.6 km/h 16.3 km/h 56 % 0 mm
10:49 12.6 °C 4 °C 1004.3 hPa North 27.4 km/h 15.8 km/h 56 % 0 mm
10:54 12.6 °C 3.7 °C 1004.3 hPa North 40.7 km/h 20.4 km/h 55 % 0 mm
10:59 12.6 °C 3.7 °C 1004.3 hPa North 27.8 km/h 19.6 km/h 55 % 0 mm
11:04 12.7 °C 3.8 °C 1004.3 hPa North 22.5 km/h 17.1 km/h 55 % 0 mm
11:09 12.9 °C 4.1 °C 1004.3 hPa North 25.9 km/h 13.8 km/h 55 % 0 mm
11:14 13 °C 3.9 °C 1003.9 hPa North 31.5 km/h 11.9 km/h 54 % 0 mm
11:19 13.2 °C 3.8 °C 1003.9 hPa North 38.6 km/h 15.4 km/h 53 % 0 mm
11:24 13.3 °C 3.6 °C 1003.6 hPa North 37 km/h 22.5 km/h 52 % 0 mm
11:29 13.4 °C 4 °C 1003.6 hPa NNW 30.6 km/h 17.2 km/h 53 % 0 mm
11:34 13.4 °C 3.8 °C 1003.6 hPa North 25.9 km/h 16.4 km/h 52 % 0 mm
11:39 13.5 °C 4.1 °C 1003.3 hPa NNE 38.6 km/h 33.3 km/h 53 % 0 mm
11:44 13.4 °C 4.1 °C 1003.3 hPa NNE 38.6 km/h 29.3 km/h 53 % 0 mm
11:49 13.6 °C 4.2 °C 1002.9 hPa North 31.5 km/h 25.1 km/h 53 % 0 mm
11:54 13.8 °C 4.3 °C 1002.6 hPa North 25.7 km/h 19 km/h 53 % 0 mm
11:59 13.9 °C 4.2 °C 1002.6 hPa North 42.6 km/h 23.7 km/h 52 % 0 mm
12:04 14.1 °C 4.1 °C 1002.6 hPa North 42.6 km/h 23.5 km/h 51 % 0 mm
12:09 14.3 °C 4.6 °C 1002.3 hPa North 31.5 km/h 17.7 km/h 52 % 0 mm
12:14 14.6 °C 4.6 °C 1002.3 hPa North 31.5 km/h 20.3 km/h 51 % 0 mm
12:19 14.6 °C 4.3 °C 1002.3 hPa NNE 46.3 km/h 23.2 km/h 50 % 0 mm
12:24 14.6 °C 4.2 °C 1001.9 hPa NNW 44.4 km/h 29 km/h 50 % 0 mm
12:29 14.7 °C 4.3 °C 1001.9 hPa North 33.3 km/h 19 km/h 50 % 0 mm
12:34 14.8 °C 4.2 °C 1001.6 hPa NNE 37 km/h 27.4 km/h 49 % 0 mm
12:39 14.9 °C 4.6 °C 1001.6 hPa NNE 40.7 km/h 19 km/h 50 % 0 mm
12:44 15.1 °C 4.8 °C 1001.2 hPa North 37 km/h 18.8 km/h 50 % 0 mm
12:49 15.1 °C 4.2 °C 1001.2 hPa NNE 38.9 km/h 27.2 km/h 48 % 0 mm
12:54 15.2 °C 4.8 °C 1001.2 hPa NNE 20.4 km/h 15.4 km/h 50 % 0 mm
12:59 15.3 °C 4.1 °C 1000.9 hPa North 55.5 km/h 34.4 km/h 47 % 0 mm
13:04 15.2 °C 4.3 °C 1000.6 hPa North 40.7 km/h 19.8 km/h 48 % 0 mm
13:09 15.2 °C 4.6 °C 1000.6 hPa NNE 46.3 km/h 34.3 km/h 49 % 0 mm
13:14 15.1 °C 4.2 °C 1000.6 hPa NNE 40.7 km/h 35.2 km/h 48 % 0 mm
13:19 15.1 °C 4.4 °C 1000.2 hPa NNE 48.1 km/h 29.3 km/h 49 % 0 mm
13:24 15.2 °C 3.9 °C 1000.2 hPa North 37 km/h 34 km/h 47 % 0 mm
13:29 15.3 °C 4.3 °C 999.9 hPa NE 38.9 km/h 37.5 km/h 48 % 0 mm
13:34 15.3 °C 4.4 °C 999.9 hPa North 38.6 km/h 25.7 km/h 48 % 0 mm
13:39 15.4 °C 4.7 °C 999.9 hPa NE 46.3 km/h 28.2 km/h 49 % 0 mm
13:44 15.4 °C 4.5 °C 999.5 hPa North 37 km/h 22.2 km/h 48 % 0 mm
13:49 15.4 °C 4.5 °C 999.5 hPa NNE 42.6 km/h 32.3 km/h 48 % 0 mm
13:54 15.6 °C 4.6 °C 999.5 hPa NE 33.3 km/h 25.3 km/h 48 % 0 mm
13:59 15.8 °C 4.2 °C 999.5 hPa NNE 41.8 km/h 37.7 km/h 46 % 0 mm
14:04 15.7 °C 4.4 °C 999.2 hPa NNE 44.4 km/h 28.3 km/h 47 % 0 mm
14:09 15.7 °C 4.4 °C 999.2 hPa NNE 40.7 km/h 27.7 km/h 47 % 0 mm
14:14 15.7 °C 4.4 °C 999.2 hPa NNE 44.4 km/h 23.5 km/h 47 % 0 mm
14:19 15.7 °C 4.1 °C 999.2 hPa NNE 51.8 km/h 24.1 km/h 46 % 0 mm
14:24 15.8 °C 3.8 °C 999.2 hPa NE 38.9 km/h 24.9 km/h 45 % 0 mm
14:29 15.7 °C 3.8 °C 999.2 hPa North 38.9 km/h 22.2 km/h 45 % 0 mm
14:34 15.8 °C 3.8 °C 999.2 hPa North 48.1 km/h 30.1 km/h 45 % 0 mm
14:39 15.9 °C 4 °C 999.2 hPa North 31.5 km/h 21.9 km/h 45 % 0 mm
14:44 15.9 °C 4 °C 998.9 hPa NNE 37 km/h 27.4 km/h 45 % 0 mm
14:49 16 °C 3.7 °C 998.9 hPa NNE 42.6 km/h 19.2 km/h 44 % 0 mm
14:54 16.1 °C 3.5 °C 998.9 hPa North 43.5 km/h 22.4 km/h 43 % 0 mm
14:59 16.1 °C 3.5 °C 998.9 hPa NNE 29.6 km/h 23.7 km/h 43 % 0 mm
15:04 16.1 °C 3.4 °C 998.9 hPa North 37 km/h 24.1 km/h 43 % 0 mm
15:09 16.1 °C 3.2 °C 998.5 hPa North 31.5 km/h 23.5 km/h 42 % 0 mm
15:14 15.9 °C 3.1 °C 998.5 hPa NNE 46.3 km/h 23.3 km/h 42 % 0 mm
15:19 15.9 °C 3.1 °C 998.5 hPa North 33.3 km/h 21.4 km/h 42 % 0 mm
15:24 16 °C 3.1 °C 998.2 hPa NNE 33.3 km/h 17.2 km/h 42 % 0 mm
15:29 15.9 °C 2.7 °C 998.2 hPa NNW 50 km/h 27 km/h 41 % 0 mm
15:34 16 °C 2.7 °C 998.2 hPa North 32.2 km/h 29.3 km/h 41 % 0 mm
15:39 16 °C 2.1 °C 997.9 hPa North 38.9 km/h 23.3 km/h 39 % 0 mm
15:44 15.9 °C 2 °C 997.5 hPa NNE 50 km/h 31.9 km/h 39 % 0 mm
15:49 15.9 °C 2.3 °C 997.5 hPa NE 40.7 km/h 25.7 km/h 40 % 0 mm
15:54 15.9 °C 2.7 °C 997.5 hPa North 37 km/h 18.8 km/h 41 % 0 mm
15:59 15.9 °C 3 °C 997.2 hPa NE 42.6 km/h 26.1 km/h 42 % 0 mm
16:04 15.7 °C 2.8 °C 997.2 hPa NNE 48.1 km/h 17.4 km/h 42 % 0 mm
16:09 15.7 °C 2.5 °C 997.2 hPa NE 42.6 km/h 18.3 km/h 41 % 0 mm
16:14 15.7 °C 2.8 °C 997.2 hPa NE 38.9 km/h 22.2 km/h 42 % 0 mm
16:19 15.6 °C 2.3 °C 997.2 hPa North 35.2 km/h 21.7 km/h 41 % 0 mm
16:24 15.4 °C 2.6 °C 997.2 hPa North 31.5 km/h 15.8 km/h 42 % 0 mm
16:29 15.2 °C 2.3 °C 997.2 hPa NNE 31.5 km/h 22.7 km/h 42 % 0 mm
16:34 14.9 °C 2.1 °C 996.8 hPa North 40.7 km/h 25.9 km/h 42 % 0 mm
16:39 14.8 °C 2.3 °C 996.8 hPa NNE 24.1 km/h 23.5 km/h 43 % 0 mm
16:44 14.7 °C 2.2 °C 996.8 hPa NNE 31.5 km/h 24.5 km/h 43 % 0 mm
16:49 14.6 °C 2.1 °C 996.8 hPa North 29.6 km/h 18.5 km/h 43 % 0 mm
16:54 14.6 °C 2.1 °C 996.8 hPa NNE 31.5 km/h 18.3 km/h 43 % 0 mm
16:59 14.6 °C 2.2 °C 996.8 hPa North 29.6 km/h 17.5 km/h 43 % 0 mm
17:04 14.6 °C 2.2 °C 996.5 hPa NE 31.5 km/h 20 km/h 43 % 0 mm
17:09 14.6 °C 2.2 °C 996.5 hPa NNE 31.5 km/h 25.9 km/h 43 % 0 mm
17:14 14.6 °C 2.2 °C 996.5 hPa ENE 33.3 km/h 17.5 km/h 43 % 0 mm
17:19 14.6 °C 2.1 °C 996.5 hPa NNE 35.2 km/h 16.1 km/h 43 % 0 mm
17:24 14.4 °C 2 °C 996.5 hPa NNE 32.2 km/h 17.7 km/h 43 % 0 mm
17:29 14.3 °C 1.9 °C 996.5 hPa NNE 22.2 km/h 16.9 km/h 43 % 0 mm
17:34 14.3 °C 1.9 °C 996.5 hPa NNE 24.1 km/h 18.3 km/h 43 % 0 mm
17:39 14.3 °C 1.8 °C 996.5 hPa NNE 18.5 km/h 13.5 km/h 43 % 0 mm
17:44 14.3 °C 1.9 °C 996.5 hPa NE 25.9 km/h 23.8 km/h 43 % 0 mm
17:49 14.3 °C 1.9 °C 996.5 hPa NNE 40.7 km/h 15.9 km/h 43 % 0 mm
17:54 14.3 °C 1.8 °C 996.5 hPa North 31.5 km/h 24.6 km/h 43 % 0 mm
17:59 14.3 °C 1.5 °C 996.5 hPa NNE 29.6 km/h 17.7 km/h 42 % 0 mm
18:04 14.3 °C 1.6 °C 996.5 hPa NNE 27.8 km/h 14.2 km/h 42 % 0 mm
18:09 14.3 °C 1.6 °C 996.5 hPa North 31.5 km/h 29.3 km/h 42 % 0 mm
18:14 14.4 °C 1.7 °C 996.5 hPa NNE 33.3 km/h 24.6 km/h 42 % 0 mm
18:19 14.5 °C 1.4 °C 996.5 hPa North 24.1 km/h 22.2 km/h 41 % 0 mm
18:24 14.6 °C 1.8 °C 996.5 hPa NNE 33.8 km/h 19.5 km/h 42 % 0 mm
18:29 14.6 °C 1.4 °C 996.5 hPa NE 35.2 km/h 17.7 km/h 41 % 0 mm
18:34 14.6 °C 1.5 °C 996.5 hPa NNE 31.5 km/h 16.9 km/h 41 % 0 mm
18:39 14.7 °C 1.6 °C 996.5 hPa NNE 35.2 km/h 22.5 km/h 41 % 0 mm
18:44 14.7 °C 1.2 °C 996.5 hPa NNE 42.6 km/h 25.1 km/h 40 % 0 mm
18:49 14.8 °C 1.3 °C 996.5 hPa North 38.9 km/h 16.3 km/h 40 % 0 mm
18:54 14.7 °C 1.6 °C 996.8 hPa North 31.5 km/h 21.7 km/h 41 % 0 mm
18:59 14.6 °C 1.5 °C 996.8 hPa North 27.8 km/h 22.9 km/h 41 % 0 mm
19:04 14.6 °C 2.1 °C 997.2 hPa North 31.5 km/h 22.5 km/h 43 % 0 mm
19:09 14.2 °C 2.8 °C 997.5 hPa North 31.5 km/h 33.2 km/h 46 % 0 mm
19:14 14.2 °C 2.8 °C 998.2 hPa North 35.2 km/h 23.8 km/h 46 % 0 mm
19:19 14.2 °C 2.7 °C 998.2 hPa North 18.5 km/h 14.8 km/h 46 % 0 mm
19:24 13.9 °C 3.4 °C 998.2 hPa North 20.4 km/h 15.6 km/h 49 % 0 mm
19:29 13.7 °C 3.5 °C 998.2 hPa North 22.2 km/h 16.9 km/h 50 % 0 mm
19:34 13.5 °C 4.1 °C 997.9 hPa North 27.8 km/h 16.4 km/h 53 % 0 mm
19:39 13.2 °C 4.1 °C 997.9 hPa North 31.5 km/h 14.8 km/h 54 % 0 mm
19:44 13.1 °C 4.3 °C 997.9 hPa North 17.7 km/h 13.7 km/h 55 % 0 mm
19:49 13 °C 4.2 °C 997.9 hPa North 22.2 km/h 16.7 km/h 55 % 0 mm
19:54 13 °C 4.2 °C 997.5 hPa North 29.6 km/h 14.3 km/h 55 % 0 mm
19:59 13 °C 4.4 °C 997.5 hPa NNE 27.8 km/h 14 km/h 56 % 0 mm
20:04 13 °C 4.4 °C 997.5 hPa North 14.8 km/h 8.4 km/h 56 % 0 mm
20:09 13 °C 4.4 °C 997.5 hPa North 22.2 km/h 11.3 km/h 56 % 0 mm
20:14 13.1 °C 4.5 °C 997.5 hPa North 22.5 km/h 15.8 km/h 56 % 0 mm
20:19 13.1 °C 4.8 °C 997.9 hPa North 24.1 km/h 17.2 km/h 57 % 0 mm
20:24 12.7 °C 5.6 °C 998.2 hPa North 18.5 km/h 10.1 km/h 62 % 0 mm
20:29 12.2 °C 5.8 °C 997.9 hPa NNW 14.8 km/h 10.9 km/h 65 % 0.2 mm
20:34 11.8 °C 5.6 °C 997.9 hPa NW 18.5 km/h 11.1 km/h 66 % 0.2 mm
20:39 11.7 °C 5.5 °C 997.9 hPa NW 20.9 km/h 15.4 km/h 66 % 0.2 mm
20:44 11.7 °C 5.7 °C 998.2 hPa NW 9.3 km/h 5.5 km/h 67 % 0.2 mm
20:49 11.5 °C 5.8 °C 998.2 hPa NW 18.5 km/h 8.5 km/h 68 % 0.2 mm
20:54 11.4 °C 5.7 °C 998.2 hPa NW 14.8 km/h 7.4 km/h 68 % 0.2 mm
20:59 11.3 °C 5.8 °C 998.9 hPa North 25.9 km/h 21.2 km/h 69 % 0.2 mm
21:04 11.2 °C 5.9 °C 998.5 hPa NW 29.6 km/h 22.4 km/h 70 % 0.41 mm
21:09 10.7 °C 6.1 °C 998.5 hPa NNW 20.4 km/h 9.5 km/h 73 % 0.61 mm
21:14 10.4 °C 6.2 °C 998.9 hPa NNW 18.5 km/h 9 km/h 75 % 0.61 mm
21:19 10.2 °C 6.4 °C 998.9 hPa North 14.8 km/h 7.9 km/h 77 % 0.61 mm
21:24 10.1 °C 6.6 °C 998.5 hPa North 11.1 km/h 5.3 km/h 79 % 0.79 mm
21:29 9.9 °C 6.7 °C 998.5 hPa NNW 9.3 km/h 4.5 km/h 80 % 0.79 mm
21:34 9.7 °C 6.6 °C 998.2 hPa NNW 11.1 km/h 7.9 km/h 81 % 0.79 mm
21:39 9.6 °C 6.8 °C 998.5 hPa NNW 13 km/h 9.3 km/h 83 % 0.79 mm
21:44 9.5 °C 6.9 °C 998.9 hPa NNW 13 km/h 8 km/h 84 % 0.79 mm
21:49 9.4 °C 7 °C 998.9 hPa NNW 18.5 km/h 10.9 km/h 85 % 1.4 mm
21:54 9.3 °C 6.9 °C 998.5 hPa North 11.1 km/h 5 km/h 85 % 1.6 mm
21:59 9.2 °C 6.9 °C 998.2 hPa North 14.8 km/h 6.9 km/h 86 % 1.6 mm
22:04 9.1 °C 7.1 °C 998.2 hPa North 9.3 km/h 6.4 km/h 87 % 1.4 mm
22:09 9.1 °C 7 °C 998.5 hPa North 11.1 km/h 8.5 km/h 87 % 1.19 mm
22:14 9 °C 6.9 °C 998.2 hPa North 9.7 km/h 6.4 km/h 87 % 1.19 mm
22:19 9 °C 7.1 °C 998.2 hPa North 9.3 km/h 7.9 km/h 88 % 1.19 mm
22:24 8.9 °C 7 °C 997.9 hPa North 9.3 km/h 6 km/h 88 % 1.19 mm
22:29 8.9 °C 7 °C 998.2 hPa North 11.1 km/h 6.1 km/h 88 % 0.99 mm
22:34 8.9 °C 7 °C 998.9 hPa North 11.3 km/h 9.3 km/h 88 % 0.99 mm
22:39 8.8 °C 7.1 °C 998.2 hPa North 11.3 km/h 8.5 km/h 89 % 0.99 mm
22:44 8.8 °C 7.1 °C 998.2 hPa North 16.7 km/h 6.9 km/h 89 % 0.99 mm
22:49 8.8 °C 7.1 °C 997.9 hPa North 14.8 km/h 10 km/h 89 % 0.41 mm
22:54 8.8 °C 7.1 °C 997.9 hPa North 16.7 km/h 9.2 km/h 89 % 0.2 mm
22:59 8.8 °C 7.1 °C 997.9 hPa North 14.8 km/h 11.1 km/h 89 % 0.2 mm
23:04 8.8 °C 7.1 °C 997.9 hPa North 13 km/h 8.9 km/h 89 % 0.2 mm
23:09 8.7 °C 7 °C 997.9 hPa North 16.7 km/h 14.3 km/h 89 % 0.2 mm
23:14 8.7 °C 7 °C 997.9 hPa North 16.7 km/h 8 km/h 89 % 0.2 mm
23:19 8.7 °C 6.9 °C 997.9 hPa North 14.8 km/h 8.9 km/h 89 % 0.2 mm
23:24 8.6 °C 6.9 °C 997.9 hPa North 13 km/h 8.7 km/h 89 % 0 mm
23:29 8.6 °C 6.7 °C 997.9 hPa NNW 18.5 km/h 10 km/h 88 % 0 mm
23:34 8.6 °C 6.7 °C 997.9 hPa North 18.5 km/h 10.8 km/h 88 % 0 mm
23:39 8.6 °C 6.7 °C 997.5 hPa NNW 16.7 km/h 10 km/h 88 % 0 mm
23:44 8.5 °C 6.6 °C 997.5 hPa NNW 14.8 km/h 7.6 km/h 88 % 0 mm
23:49 8.4 °C 6.5 °C 997.5 hPa North 13 km/h 16.3 km/h 88 % 0 mm
23:54 8.3 °C 6.3 °C 997.5 hPa NNW 20.4 km/h 16.1 km/h 87 % 0 mm
23:59 8.3 °C 6.2 °C 997.5 hPa NW 20.9 km/h 15.4 km/h 87 % 0 mm
Ararat Weather
Compliments of Weather Underground - 2.25 mb
Click here to send mail.


ABOUT

Live weather data from Ararat, Victoria, Australia, 3377
Data uploaded from Cumulus every 5 minutes to Weather Underground.
This site then downloads the raw data for formatting and display.
Metric and imperial data can be displayed. Graphs and historical data available.
Includes Sun and Moon times and rain image live from BOM.

Check out Ararat Weather on Facebook, Twitter and Google +

Help support ongoing costs by checking out the ads





Follow @AraratWeather